[[{"header":{"parameterUnit":"m.s-1","parameterCategory":1,"la1":30.2991,"la2":30.254,"lo1":-89.0895,"lo2":-89.0444,"dy":0.0017,"dx":0.0017,"nx":28,"ny":28,"refTime":"2025-09-13T03:00:00:Z","depth":0,"parameterNumber":2,"parameterNumberName":"U-component_of_WINDS"},"data":[0,0,0,0,0,0,0,0,0,0,0,0,0,0,0,0,0,0,0,0,0,0,0,0,0,0,0,0,0,0,0,0,0,0,0,0,0,0,0,0,0,0,0,0,0,0,0,0,0,0,0,0,0,0,0,0,0,0,3.0873,3.0874,0,3.0985,3.0986,3.0988,3.0941,3.0938,3.0936,3.0933,3.1049,3.1054,3.106,0,0,0,0,0,0,0,0,0,0,0,0,0,3.0621,3.0626,3.0873,3.0874,3.0876,3.0985,3.0986,3.0988,3.0942,3.0938,3.0935,3.0932,3.1047,3.1054,3.106,0,0,0,0,0,0,0,0,0,0,0,0,0,3.0731,3.0627,3.0873,3.0866,3.0866,3.0985,3.0986,3.0988,3.0942,3.0938,3.0934,3.093,3.1045,3.1053,3.1061,3.1193,0,0,3.1087,3.109,0,0,0,0,0,0,0,0,3.0725,3.0741,3.0866,3.0867,3.0867,3.0945,3.094,3.1057,3.0943,3.0914,3.0933,3.0929,3.1018,3.1028,3.1058,3.1199,3.1203,3.1087,3.1093,3.1096,3.1098,0,0,0,0,0,0,0,3.0717,3.0736,3.0917,3.0867,3.0869,3.0858,3.0869,3.0962,3.0987,3.0916,3.0913,3.0926,3.1017,3.105,3.106,3.1205,3.1087,3.1095,3.11,3.1103,3.146,3.1465,0,0,0,0,0,0,3.071,3.0729,3.0914,3.0921,3.0785,3.0865,3.0878,3.0924,3.0986,3.0991,3.093,3.0924,3.1038,3.105,3.1064,3.1222,3.1096,3.1104,3.1109,3.1456,3.1461,3.1466,0,0,0,0,0,0,3.0704,3.0726,3.0909,3.0824,3.0847,3.0874,3.0926,3.0928,3.0961,3.0996,3.1,3.0958,3.1035,3.1052,3.1161,3.1226,3.1108,3.1115,3.1451,3.1458,3.1464,3.154,0,0,0,0,0,0,3.0697,3.0725,3.0775,3.0826,3.0851,3.1005,3.093,3.0934,3.0975,3.0969,3.1024,3.1029,3.1033,3.1149,3.117,3.1235,3.1122,3.1445,3.1454,3.1462,3.1532,3.1549,3.1563,0,0,0,0,0,3.0688,3.0792,3.0777,3.08,3.0914,3.1008,3.1023,3.1025,3.0981,3.1031,3.1054,3.1028,3.1216,3.1161,3.1183,3.1252,3.1441,3.1451,3.1461,3.1525,3.1546,3.1563,0,0,0,0,0,0,3.0748,3.0798,3.0783,3.0906,3.0953,3.1,3.1064,3.1046,3.1107,3.1098,3.1098,3.1111,3.1224,3.1249,3.1187,3.1384,3.1322,3.1337,3.1363,3.1382,3.1397,3.1389,3.1129,0,0,0,0,0,3.0775,3.0847,3.0887,3.0992,3.1017,3.1037,3.1077,3.1075,3.1124,3.1144,3.1174,3.1223,3.1293,3.1339,3.1406,3.1536,3.1548,3.1595,3.161,3.1623,3.1636,3.1707,3.1728,3.1499,3.1499,3.1499,0,0,3.0832,3.0869,3.0914,3.1005,3.1041,3.1116,3.1053,3.1135,3.119,3.1156,3.126,3.1285,3.134,3.146,3.1515,3.1485,3.1702,3.1636,3.1645,3.1651,3.1719,3.1741,3.176,3.1506,3.1505,3.1504,0,0,3.0974,3.101,3.1101,3.1138,3.1194,3.1207,3.1229,3.1279,3.1294,3.1399,3.1375,3.1442,3.1562,3.1602,3.1638,3.1798,3.1775,3.1819,3.19,3.1969,3.1987,3.2003,3.2059,3.2079,3.1832,3.1832,3.1833,0,3.1039,3.1149,3.115,3.1233,3.1274,3.1247,3.1339,3.1376,3.1451,3.148,3.1445,3.1597,3.1632,3.1761,3.18,3.183,3.1856,3.1812,3.1984,3.2,3.2015,3.2069,3.209,3.1837,3.1837,3.1836,3.1836,0,3.1225,3.1303,3.137,3.1442,3.1491,3.1579,3.1593,3.1642,3.1636,3.1653,3.1761,3.1802,3.1876,3.1907,3.1902,3.2036,3.2016,3.1983,3.1921,3.2042,3.2092,3.2113,3.1844,3.1843,3.1841,3.184,0,0,3.1406,3.1479,3.1504,3.1536,3.1597,3.1657,3.1744,3.1816,3.1858,3.1912,3.1984,3.2088,3.2058,3.2099,3.2099,3.216,3.2283,3.2119,3.2121,3.2148,3.2433,3.2457,3.248,3.2269,3.2273,3.2276,3.2428,0,3.1553,3.1704,3.1708,3.1847,3.1918,3.1895,3.197,3.2016,3.2034,3.2098,3.2119,3.2192,3.2147,3.2172,3.2231,3.2255,3.234,3.2244,3.2337,3.234,3.2323,3.2507,3.2532,3.2673,3.2448,3.2452,3.2454,0,3.1743,3.1802,3.1948,3.1998,3.2029,3.2097,3.2164,3.2225,3.2277,3.2286,3.2333,3.2323,3.2413,3.2349,3.2472,3.2407,3.2445,3.2463,3.2468,3.2476,3.2403,3.2519,3.2719,3.2739,3.2485,3.2483,3.248,0,3.1859,3.1976,3.2078,3.2107,3.2169,3.2217,3.2245,3.2292,3.2336,3.2395,3.2424,3.2493,3.2531,3.2585,3.2594,3.2547,3.2718,3.2655,3.2728,3.2728,3.2764,3.2762,3.2972,3.2791,3.2791,3.279,3.279,0,3.2022,3.2112,3.2131,3.2194,3.2295,3.2299,3.2399,3.2423,3.2466,3.2533,3.2518,3.2582,3.2591,3.2658,3.2666,3.2767,3.2785,3.2795,3.2795,3.2795,3.2794,3.2819,3.281,3.2796,3.2795,3.2794,3.2793,0,3.2168,3.2185,3.2295,3.2344,3.2359,3.2431,3.2474,3.2534,3.2551,3.2637,3.2658,3.2685,3.2763,3.2778,3.287,3.2876,3.2996,3.2988,3.2978,3.2977,3.3049,3.3042,3.3282,3.3314,3.3113,3.3115,3.3117,0,3.227,3.2339,3.2396,3.244,3.247,3.2541,3.2586,3.2593,3.264,3.2705,3.2758,3.2834,3.2895,3.302,3.3048,3.3119,3.3111,3.3191,3.3122,3.312,3.3112,3.3107,3.3114,3.3204,3.3206,3.3208,3.3209,0,3.2448,3.2454,3.2518,3.2586,3.264,3.2694,3.2745,3.2783,3.2797,3.2851,3.293,3.2977,3.3071,3.3147,3.3218,3.3247,3.3231,3.3231,3.3252,3.3251,3.3243,3.3248,3.3013,3.3225,3.3223,3.3222,3.3221,3.3221,3.2575,3.2635,3.2685,3.2758,3.2797,3.2846,3.2905,3.293,3.2996,3.3073,3.3073,3.316,3.3211,3.3304,3.3338,3.3406,3.3381,3.3411,3.3418,3.3425,3.3432,3.3233,3.3419,3.3419,3.3418,3.3418,3.3418,0,3.2752,3.2783,3.285,3.2923,3.298,3.296,3.3016,3.3066,3.3142,3.3191,3.3251,3.3342,3.3416,3.3451,3.3523,3.3571,3.3566,3.359,3.3586,3.3593,3.345,3.3425,3.3593,3.3593,3.3593,3.3593,3.3593,3.3593,3.2851,3.2952,3.2963,3.3083,3.3114,3.3198,3.3232,3.3277,3.3316,3.3418,3.3479,3.3501,3.3545,3.3621,3.3688,3.3696,3.3723,3.3751,3.3756,3.3621,3.3603,3.3586,3.3562,3.3757,3.3757,3.3893,3.3894,3.3895]},{"header":{"parameterUnit":"m.s-1","parameterCategory":1,"la1":30.2991,"la2":30.254,"lo1":-89.0895,"lo2":-89.0444,"dy":0.0017,"dx":0.0017,"nx":28,"ny":28,"refTime":"2025-09-13T03:00:00:Z","depth":0,"parameterNumber":3,"parameterNumberName":"V-component_of_WINDS"},"data":[0,0,0,0,0,0,0,0,0,0,0,0,0,0,0,0,0,0,0,0,0,0,0,0,0,0,0,0,0,0,0,0,0,0,0,0,0,0,0,0,0,0,0,0,0,0,0,0,0,0,0,0,0,0,0,0,0,0,0.1829,0.1829,0,0.182,0.182,0.182,0.1791,0.1791,0.179,0.179,0.1781,0.1782,0.1782,0,0,0,0,0,0,0,0,0,0,0,0,0,0.182,0.182,0.1829,0.1829,0.1829,0.182,0.182,0.182,0.1792,0.1791,0.179,0.1789,0.1781,0.1782,0.1782,0,0,0,0,0,0,0,0,0,0,0,0,0,0.1819,0.182,0.1829,0.1813,0.1812,0.182,0.182,0.182,0.1792,0.1791,0.179,0.1789,0.1781,0.1782,0.1782,0.1805,0,0,0.1784,0.1784,0,0,0,0,0,0,0,0,0.1819,0.1819,0.1816,0.1814,0.1813,0.1806,0.1814,0.1815,0.1792,0.1799,0.179,0.1788,0.179,0.179,0.1791,0.1805,0.1805,0.1784,0.1784,0.1785,0.1785,0,0,0,0,0,0,0,0.1819,0.182,0.1826,0.1816,0.1814,0.1807,0.1806,0.1814,0.1801,0.1799,0.1797,0.1796,0.1789,0.179,0.179,0.1805,0.1784,0.1785,0.1785,0.1785,0.1836,0.1837,0,0,0,0,0,0,0.1821,0.182,0.1826,0.1825,0.1814,0.1808,0.1806,0.1809,0.18,0.1798,0.1797,0.1795,0.179,0.179,0.179,0.1816,0.1785,0.1785,0.1786,0.1835,0.1836,0.1838,0,0,0,0,0,0,0.1821,0.1822,0.1826,0.1822,0.1822,0.1809,0.1812,0.181,0.181,0.1799,0.1796,0.18,0.1789,0.1789,0.1801,0.1815,0.1786,0.1786,0.1834,0.1836,0.1837,0.1869,0,0,0,0,0,0,0.1821,0.1822,0.1831,0.1822,0.1822,0.1838,0.1813,0.181,0.1811,0.1808,0.1801,0.1799,0.1788,0.1801,0.1802,0.1816,0.1787,0.1833,0.1835,0.1837,0.1866,0.1871,0.1875,0,0,0,0,0,0.1821,0.1841,0.1832,0.1833,0.1833,0.1839,0.1839,0.1826,0.1813,0.1821,0.1814,0.1799,0.1813,0.1802,0.1804,0.1817,0.1832,0.1834,0.1836,0.1864,0.187,0.1875,0,0,0,0,0,0,0.1852,0.1839,0.1829,0.1847,0.1844,0.1834,0.1845,0.1832,0.1833,0.1831,0.1814,0.1813,0.1828,0.1824,0.1811,0.1839,0.182,0.1823,0.1841,0.1846,0.1851,0.1852,0.1787,0,0,0,0,0,0.1861,0.1867,0.1855,0.1872,0.1871,0.1858,0.186,0.185,0.1847,0.1846,0.1839,0.1836,0.184,0.1843,0.1846,0.1865,0.1863,0.1875,0.188,0.1883,0.1886,0.1895,0.1901,0.1845,0.1845,0.1845,0,0,0.188,0.1873,0.1878,0.1878,0.1875,0.1881,0.1857,0.1865,0.187,0.1847,0.1858,0.1853,0.1849,0.1865,0.1872,0.1862,0.1901,0.1886,0.1889,0.189,0.1898,0.1904,0.1908,0.1847,0.1846,0.1846,0,0,0.1917,0.1912,0.1925,0.1922,0.1917,0.1908,0.1912,0.1903,0.1899,0.191,0.1892,0.1897,0.1904,0.1902,0.1901,0.1936,0.1923,0.1937,0.196,0.197,0.1974,0.1978,0.199,0.1995,0.194,0.194,0.194,0,0.194,0.1949,0.1934,0.1943,0.1943,0.1921,0.1934,0.1932,0.1929,0.1929,0.1918,0.1926,0.1922,0.1936,0.1945,0.1945,0.1948,0.1938,0.1975,0.1978,0.1982,0.1993,0.1998,0.1942,0.1941,0.1941,0.1941,0,0.1978,0.1985,0.1996,0.1992,0.1994,0.2005,0.1991,0.1994,0.1983,0.1975,0.1986,0.198,0.1981,0.1984,0.1974,0.1997,0.1991,0.1978,0.1959,0.1989,0.2,0.2004,0.1944,0.1944,0.1943,0.1943,0,0,0.2036,0.2023,0.2027,0.2025,0.2018,0.2022,0.2032,0.2032,0.2035,0.2033,0.204,0.2046,0.2033,0.2033,0.2022,0.203,0.2058,0.2016,0.2016,0.2024,0.2083,0.2093,0.2098,0.2049,0.205,0.205,0.2083,0,0.2071,0.2087,0.2073,0.2091,0.2096,0.2075,0.2084,0.208,0.2072,0.2076,0.2067,0.2072,0.2055,0.2054,0.2061,0.2053,0.2069,0.205,0.2056,0.2056,0.2058,0.2104,0.2115,0.2146,0.2087,0.2088,0.2088,0,0.2115,0.2114,0.2133,0.2123,0.2125,0.2132,0.2131,0.2135,0.2129,0.2123,0.2122,0.2109,0.2117,0.2098,0.2109,0.2097,0.2098,0.2094,0.2095,0.2095,0.2074,0.2106,0.2156,0.2161,0.2095,0.2094,0.2094,0,0.2155,0.2158,0.217,0.2169,0.2158,0.2163,0.2159,0.2153,0.2154,0.2153,0.2153,0.2153,0.2153,0.2153,0.214,0.2127,0.2152,0.2132,0.2148,0.2148,0.2154,0.2154,0.2206,0.2155,0.2155,0.2155,0.2154,0,0.2196,0.2208,0.2188,0.2195,0.2208,0.2191,0.2204,0.2198,0.2192,0.2197,0.2179,0.2185,0.2167,0.217,0.2159,0.217,0.217,0.2165,0.2163,0.2167,0.2168,0.2168,0.2166,0.2156,0.2155,0.2155,0.2155,0,0.2243,0.223,0.2241,0.2229,0.2227,0.2237,0.2226,0.2232,0.2223,0.223,0.2231,0.2217,0.222,0.2206,0.2207,0.22,0.2215,0.2209,0.2217,0.2215,0.2231,0.223,0.2285,0.2292,0.2236,0.2237,0.2237,0,0.227,0.2279,0.2268,0.227,0.2267,0.227,0.2271,0.2254,0.2256,0.225,0.2256,0.2258,0.2258,0.2263,0.2253,0.2253,0.2247,0.2266,0.2247,0.2251,0.2247,0.2247,0.2247,0.227,0.2271,0.2271,0.2272,0,0.232,0.2313,0.2314,0.2313,0.2314,0.2313,0.231,0.2313,0.2295,0.2297,0.2299,0.2299,0.2299,0.2301,0.2299,0.2294,0.228,0.2278,0.2281,0.2286,0.2291,0.2289,0.2229,0.2277,0.2276,0.2276,0.2276,0.2275,0.2358,0.2365,0.2358,0.236,0.2356,0.2353,0.2358,0.2349,0.2351,0.235,0.234,0.2344,0.2337,0.2333,0.233,0.2332,0.2323,0.2329,0.233,0.2331,0.2334,0.229,0.2332,0.2332,0.2332,0.2332,0.2331,0,0.2407,0.2401,0.2403,0.2399,0.2401,0.2387,0.2382,0.2385,0.2389,0.2384,0.2384,0.2386,0.2387,0.2377,0.2376,0.238,0.2374,0.2381,0.2381,0.238,0.2343,0.234,0.2386,0.2386,0.2386,0.2386,0.2386,0.2386,0.2433,0.2443,0.2435,0.2443,0.2437,0.244,0.2439,0.2437,0.2433,0.2436,0.2437,0.2429,0.2422,0.2421,0.2421,0.2417,0.2418,0.2427,0.2422,0.2388,0.2382,0.2377,0.2374,0.2428,0.2428,0.2459,0.2459,0.2459]}]]